This demonstration page uses our WeatherBlox Daily Observations layout. Learn more.

Left ArrowRight Arrow

38.89511, -77.03637

Hourly Observations for July 30, 2018

Temp ( °F °C ) Dew Point ( °F °C ) Humidity (%) Winds ( mph kmh ) Pressure ( in mb ) Visibility ( mi km ) Precip ( " mm )
12:52 am 00:52 Partly Cloudy 77 25 62 16.7 60 60 Calm 30.12 1020 10 16 0.00 0.00
1:52 am 01:52 Mostly Cloudy 75 23.9 63 17.2 66 66 Calm 30.12 1020 10 16 0.00 0.00
2:52 am 02:52 Mostly Cloudy 74 23.3 63 17.2 69 69 ENE 3 6 30.12 1020 10 16 0.00 0.00
3:52 am 03:52 Mostly Cloudy 74 23.3 64 17.8 71 71 NNE 6 9 30.12 1020 10 16 0.00 0.00
4:52 am 04:52 Mostly Cloudy 73 22.8 65 18.3 76 76 NE 7 11 30.11 1020 10 16 0.00 0.00
5:52 am 05:52 Mostly Cloudy 73 22.8 65 18.3 76 76 NNE 6 9 30.11 1020 10 16 0.00 0.00
6:31 am 06:31 Mostly Cloudy with Nearby Thunderstorms 74 23.3 67 19.4 79 79 ENE 5 7 30.12 1020 10 16 0.00 0.00
6:52 am 06:52 Cloudy with Nearby Thunderstorms 73 22.8 66 18.9 79 79 Calm 30.10 1019 10 16 0.00 0.00
7:02 am 07:02 Cloudy 73 22.8 67 19.4 81 81 Calm 30.12 1020 10 16 0.00 0.00
7:52 am 07:52 Cloudy 75 23.9 68 20 79 79 NE 6 9 30.11 1020 10 16 0.00 0.00
8:52 am 08:52 Cloudy 76 24.4 70 21.1 82 82 NE 8 13 30.10 1019 10 16 0.00 0.00
9:52 am 09:52 Cloudy 78 25.6 71 21.7 79 79 ESE 14 22 30.11 1020 10 16 0.00 0.00
10:52 am 10:52 Cloudy 77 25 67 19.4 71 71 SE 14 22 30.11 1020 10 16 0.00 0.00
11:30 am 11:30 Cloudy 77 25 65 18.3 66 66 ESE 14 22 30.12 1020 10 16 0.00 0.00
11:52 am 11:52 Cloudy with Light Rain 76 24.4 65 18.3 69 69 ESE 15 24 30.11 1020 10 16 0.00 0.03
12:52 pm 12:52 Cloudy 76 24.4 65 18.3 69 69 ESE 16 26 30.10 1019 10 16 0.00 0.03
1:52 pm 13:52 Cloudy 76 24.4 65 18.3 69 69 SE 13 20 30.09 1019 10 16 0.00 0.00
2:17 pm 14:17 Cloudy 74 23.3 66 18.9 76 76 ESE 10 17 30.09 1019 10 16 0.00 0.00
2:52 pm 14:52 Cloudy 76 24.4 67 19.4 74 74 SE 8 13 30.09 1019 10 16 0.00 0.03
3:52 pm 15:52 Cloudy 76 24.4 66 18.9 72 72 ESE 13 20 30.09 1019 10 16 0.00 0.00
4:52 pm 16:52 Cloudy with Light Rain 75 23.9 66 18.9 74 74 E 12 19 30.07 1018 10 16 0.00 0.03
5:01 pm 17:01 Cloudy with Light Rain 75 23.9 66 18.9 74 74 ESE 9 15 30.09 1019 10 16 0.00 0.03
5:09 pm 17:09 Cloudy with Heavy Rain 74 23.3 67 19.4 79 79 E 13 20 30.09 1019 4 6 0.02 0.51
5:35 pm 17:35 Cloudy with Heavy Rain 73 22.8 67 19.4 81 81 ENE 9 15 30.09 1019 2 3 0.08 2.03
5:37 pm 17:37 Cloudy with Heavy Rain 73 22.8 68 20 84 84 ENE 9 15 30.09 1019 2 3 0.13 3.30
5:45 pm 17:45 Cloudy with Heavy Rain 73 22.8 68 20 84 84 ENE 7 11 30.09 1019 2 3 0.20 5.08
5:52 pm 17:52 Cloudy with Heavy Rain 73 22.8 68 20 84 84 NE 9 15 30.10 1019 2 3 0.24 6.10
5:57 pm 17:57 Cloudy with Heavy Rain 72 22.2 68 20 87 87 NNE 9 15 30.12 1020 2 3 0.03 0.76
6:11 pm 18:11 Cloudy with Rain 72 22.2 69 20.6 91 91 NNE 8 13 30.09 1019 2 3 0.16 4.06
6:17 pm 18:17 Cloudy with Heavy Rain 72 22.2 69 20.6 91 91 NE 10 17 30.09 1019 3 5 0.18 4.57
6:19 pm 18:19 Cloudy with Heavy Rain 72 22.2 69 20.6 91 91 NNE 9 15 30.09 1019 3 4 0.19 4.83
6:26 pm 18:26 Cloudy with Rain 72 22.2 69 20.6 91 91 NE 10 17 30.09 1019 3 5 0.22 5.59
6:52 pm 18:52 Cloudy with Rain 73 22.8 69 20.6 87 87 ENE 7 11 30.09 1019 5 8 0.25 6.35
7:01 pm 19:01 Cloudy with Rain 73 22.8 69 20.6 87 87 E 7 11 30.09 1019 5 8 0.02 0.51
7:16 pm 19:16 Cloudy with Light Rain 73 22.8 69 20.6 87 87 ESE 7 11 30.09 1019 9 14 0.02 0.51
7:52 pm 19:52 Cloudy 73 22.8 68 20 84 84 ESE 12 19 30.07 1018 10 16 0.02 0.51
8:52 pm 20:52 Mostly Cloudy 72 22.2 68 20 87 87 VRB 3 6 30.07 1018 10 16 0.00 0.03
9:03 pm 21:03 Cloudy with Light Rain 72 22.2 68 20 87 87 Calm 30.09 1019 10 16 0.00 0.03
9:24 pm 21:24 Mostly Cloudy 73 22.8 68 20 84 84 Calm 30.09 1019 10 16 0.00 0.03
9:52 pm 21:52 Cloudy 73 22.8 68 20 84 84 Calm 30.09 1019 10 16 0.00 0.03
10:52 pm 22:52 Cloudy 73 22.8 68 20 84 84 ESE 3 6 30.09 1019 10 16 0.00 0.00
11:39 pm 23:39 Cloudy 73 22.8 69 20.6 87 87 ENE 5 7 30.09 1019 10 16 0.00 0.00
11:52 pm 23:52 Cloudy 73 22.8 69 20.6 87 87 ENE 6 9 30.08 1019 10 16 0.00 0.00

Powered by AerisWeather